Location: Asheville, NC
(35.6000°N, 82.5500°W)
Time: 17:38:59

XW-2B - Pass Details

Date: 16 March 2018
Orbit: 511 x 530 km, 97.5° (Epoch: 20 March)

Event Time Altitude Azimuth Distance (km) Brightness Sun altitude
Rises 07:02:46 0° 22° (NNE) 2,663 ? -8.3°
Reaches altitude 10° 07:05:02 10° 32° (NNE) 1,772 ? -7.8°
Maximum altitude 07:08:31 33° 98° (E) 893 ? -7.1°
Drops below altitude 10° 07:12:00 10° 164° (SSE) 1,765 ? -6.4°
Sets 07:14:14 0° 173° (S) 2,651 ? -6.0°
